Location: Bletchingley
(51.2333°N, 0.1000°W)
Time: 14:38:48
(UTC+00:00)

Cosmos 2266 Rocket - Pass Details

Date: 26 January 2021
Orbit: 934 x 1008 km, 82.9° (Epoch: 05 March)

Event Time Altitude Azimuth Distance (km) Brightness Sun altitude
Rises 04:43:56 0° 357° (N) 3,620 7.0 -28.3°
Reaches altitude 10° 04:47:28 10° 18° (NNE) 2,663 6.5 -27.7°
Maximum altitude 04:51:15 17° 57° (ENE) 2,201 6.5 -27.2°
Drops below altitude 10° 04:55:00 10° 96° (E) 2,647 7.3 -26.6°
Sets 04:58:30 0° 116° (ESE) 3,588 7.9 -26.0°
